Location: Follega
(52.8850°N, 5.7362°E)
Time: 08:17:05
(UTC+00:00)

ERS-1 Rocket - Pass Details

Date: 07 October 2020
Orbit: 753 x 757 km, 98.5° (Epoch: 30 October)

Event Time Altitude Azimuth Distance (km) Brightness Sun altitude
Exits shadow 21:38:12 23° 328° (NNW) 1,590 5.1 -38.3°
Drops below altitude 10° 21:40:08 10° 337° (NNW) 2,300 6.2 -38.4°
Sets 21:42:30 0° 342° (NNW) 3,230 7.1 -38.6°
